Epoch 2020 Aug. 19.0 TT = JDT 2459080.5 T 2020 Aug. 29.23729 TT Rudenko q 0.9385129 (2000.0) P Q z +0.0066899 Peri. 116.75342 -0.20584809 -0.58215551 +/-0.0007036 Node 307.77048 +0.02268935 +0.80074742 e 0.9937214 Incl. 84.31919 +0.97832089 -0.14106214 From 33 observations 2020 Apr. 21-June 2, mean residual 0".6.
m1 = 14.0 + 5 logΔ + 10.0 log r